www.pogodaiklimat.ru
ПОГОДА в Хемлинге
Время
(UTC), дата
13 30.11
14 30.11
15 30.11
16 30.11
17 30.11
18 30.11
19 30.11
20 30.11
21 30.11
22 30.11
23 30.11
00 1.12
01 1.12
02 1.12
03 1.12
04 1.12
05 1.12
06 1.12
07 1.12
08 1.12
09 1.12
10 1.12
12 1.12
13 1.12
14 1.12
15 1.12
16 1.12
17 1.12
18 1.12
19 1.12
20 1.12
21 1.12
22 1.12
23 1.12
00 2.12
01 2.12
02 2.12
03 2.12
04 2.12
05 2.12
06 2.12
07 2.12
08 2.12
09 2.12
10 2.12
11 2.12
12 2.12
13 2.12
14 2.12
15 2.12
16 2.12
17 2.12
18 2.12
19 2.12
20 2.12
21 2.12
22 2.12
23 2.12
00 3.12
01 3.12
02 3.12
03 3.12
04 3.12
05 3.12
06 3.12
07 3.12
08 3.12
09 3.12
10 3.12
11 3.12
12 3.12
13 3.12
14 3.12
15 3.12
16 3.12
17 3.12
18 3.12
19 3.12
20 3.12
21 3.12
22 3.12
23 3.12
00 4.12
01 4.12
02 4.12
03 4.12
04 4.12
05 4.12
06 4.12
07 4.12
08 4.12
11 4.12
12 4.12
13 4.12
14 4.12
15 4.12
16 4.12
17 4.12
18 4.12
19 4.12
20 4.12
21 4.12
22 4.12
23 4.12
00 5.12
01 5.12
02 5.12
03 5.12
04 5.12
05 5.12
06 5.12
07 5.12
08 5.12
09 5.12
10 5.12
11 5.12
12 5.12
13 5.12
14 5.12
15 5.12
16 5.12
17 5.12
18 5.12
19 5.12
20 5.12
21 5.12
22 5.12
23 5.12
00 6.12
01 6.12
02 6.12
03 6.12
04 6.12
05 6.12
06 6.12
07 6.12
08 6.12
09 6.12
10 6.12
11 6.12
12 6.12
13 6.12
14 6.12
15 6.12
16 6.12
17 6.12
18 6.12
19 6.12
20 6.12
21 6.12
22 6.12
23 6.12
00 7.12
01 7.12
02 7.12
03 7.12
04 7.12
05 7.12
06 7.12
07 7.12
08 7.12
09 7.12
10 7.12
11 7.12
Ветер
(напр.,м/с)
Видим. Явления Облачность Т
(С)
Тd
(С)
f
(%)
Тe
(С)
Тes
(С)
Комфортность P
(гПа)
Po
(гПа)
Тmin
(С)
Tmax
(С)
R
(мм)
R24
(мм)
S
(см)
СЗ 3
{7}
50 км ясно -6.2 -9.0 81 -12 -12 очень
холодно
1004.2 981.3
СЗ 2
{6}
50 км ясно -6.2 -8.6 83 -11 -11 очень
холодно
1004.8 981.9
СЗ 3
{5}
50 км ясно -6.9 -9.0 85 -13 -13 очень
холодно
1005.1 982.1
СЗ 3
{6}
50 км ясно -7.2 -9.3 85 -13 -13 очень
холодно
1005.1 982.1
СЗ 2
{5}
35 км ясно -8.0 -9.6 88 -12 -12 очень
холодно
1005.6 982.6
СЗ 2
{5}
26 км ясно -7.5 -9.3 87 -12 -12 очень
холодно
1005.3 982.3 -8.6 -4.6
З 4
{8}
50 км ясно -7.1 -9.4 84 -14 -14 очень
холодно
1005.3 982.3
З 4
{8}
50 км ясно -6.7 -9.3 82 -13 -13 очень
холодно
1005.3 982.4
З 2
{7}
50 км ясно -7.5 -9.7 84 -12 -12 очень
холодно
1005.0 982.0
ЮЗ 1
{5}
50 км ясно -7.4 -9.2 87 -10 -10 очень
холодно
1004.2 981.3
З 2
{5}
50 км ясно -7.2 -8.9 88 -12 -12 очень
холодно
1003.5 980.6
З 2
{5}
50 км ясно -6.7 -8.5 87 -11 -11 очень
холодно
1003.0 980.1
З 4
{7}
50 км ясно -5.7 -7.7 86 -12 -12 очень
холодно
1002.4 979.5
З 4
{8}
50 км ясно -5.2 -7.2 86 -12 -12 очень
холодно
1001.9 979.1
З 5
{9}
50 км ясно -4.6 -6.6 86 -12 -12 очень
холодно
1001.2 978.5
З 5
{9}
40 км 4/1 500 м
[]
-4.4 -6.5 85 -11 -11 очень
холодно
1001.1 978.3
З 3
{9}
1200 м слаб. снег ?/? -3.5 -4.4 93 -9 -9 очень
холодно
1000.4 977.7 0.0
В 1
{5}
900 м снег ?/? -3.5 -4.0 96 -6 -6 холодно 999.5 976.9 -7.7 -3.3 0.9
ЮВ 1
{3}
2400 м слаб. снег ?/? -3.5 -3.9 97 -6 -6 холодно 998.7 976.0 0.6
С 2
{3}
800 м слаб. снег ?/? -3.1 -3.6 96 -7 -7 холодно 999.1 976.4 0.7
З 1
{2}
50 км в посл. час снег {метель} 6/0
[]
-4.2 -4.9 95 -7 -7 холодно 999.0 976.3 0.3
З 3
{5}
50 км {снег, метель} ясно -3.5 -4.2 95 -9 -9 очень
холодно
999.4 976.8
СЗ 2
{4}
50 км {снег, метель} ясно -4.9 -6.3 90 -9 -9 очень
холодно
1000.1 977.4
С 1
{4}
50 км ясно -5.4 -7.1 88 -8 -8 очень
холодно
1000.2 977.4
С 2
{3}
50 км ясно -5.6 -7.6 86 -10 -10 очень
холодно
1000.7 977.9
З 4
{7}
45 км ясно -5.5 -7.4 86 -12 -12 очень
холодно
1000.6 977.8
З 4
{8}
45 км ясно -5.1 -7.6 83 -11 -11 очень
холодно
1000.6 977.9
З 6
{10}
50 км ясно -5.0 -7.7 81 -13 -13 очень
холодно
1000.6 977.9
З 5
{10}
50 км ясно -5.4 -7.8 83 -13 -13 очень
холодно
1000.5 977.7 -6.1 -2.4
З 6
{10}
50 км ясно -5.0 -7.5 83 -13 -13 очень
холодно
1000.8 978.0
З 4
{9}
50 км ясно -5.0 -7.2 85 -11 -11 очень
холодно
1001.1 978.3
З 2
{6}
50 км ясно -5.3 -7.4 85 -10 -10 очень
холодно
1000.8 978.0
З 4
{8}
50 км ясно -4.8 -7.1 84 -11 -11 очень
холодно
1000.7 977.9
З 5
{10}
50 км ясно -4.3 -6.8 83 -11 -11 очень
холодно
1000.7 978.0
СЗ 1
{8}
50 км ясно -5.4 -7.4 86 -8 -8 очень
холодно
1001.4 978.6
З 5
{8}
50 км ясно -4.3 -6.7 83 -11 -11 очень
холодно
1001.2 978.4
З 5
{9}
50 км ясно -4.4 -7.0 82 -11 -11 очень
холодно
1001.0 978.2
СЗ 2
{9}
50 км ясно -5.0 -7.2 85 -9 -9 очень
холодно
1001.0 978.3
С 2
{8}
50 км ясно -5.4 -7.7 84 -10 -10 очень
холодно
1000.9 978.1
С 1
{5}
50 км ясно -5.9 -7.8 86 -8 -8 очень
холодно
1001.1 978.3
СЗ 2
{4}
50 км ясно -4.3 -6.7 83 -8 -8 очень
холодно
1001.6 978.8 -6.4 -4.0
СЗ 2
{5}
50 км ясно -5.0 -6.9 86 -9 -9 очень
холодно
1001.8 979.1
СЗ 2
{4}
50 км ясно -5.2 -7.0 87 -10 -10 очень
холодно
1002.3 979.5
СЗ 3
{5}
50 км ясно -4.6 -7.0 83 -10 -10 очень
холодно
1002.8 980.0
СЗ 2
{5}
45 км ясно -3.9 -7.0 79 -8 -8 очень
холодно
1003.1 980.3
СЗ 3
{6}
40 км ясно -3.4 -6.8 77 -9 -8 очень
холодно
1003.4 980.7
СЗ 3
{6}
50 км ясно -3.7 -7.0 78 -9 -9 очень
холодно
1004.0 981.3
З 4
{6}
50 км ясно -4.3 -7.1 81 -11 -11 очень
холодно
1004.4 981.6
З 3
{6}
50 км ясно -4.5 -7.4 80 -10 -10 очень
холодно
1005.0 982.2
СЗ 3
{5}
50 км ясно -4.7 -7.5 81 -10 -10 очень
холодно
1005.2 982.4
СЗ 3
{6}
50 км ясно -4.6 -7.3 81 -10 -10 очень
холодно
1006.0 983.1
СЗ 2
{6}
50 км ясно -4.3 -7.1 81 -8 -8 очень
холодно
1006.7 983.8
СЗ 2
{6}
50 км ясно -4.1 -7.0 80 -8 -8 очень
холодно
1007.3 984.4 -5.5 -3.3
СЗ 2
{5}
50 км ясно -4.2 -7.1 80 -8 -8 очень
холодно
1007.2 984.3
СЗ 2
{5}
45 км ясно -4.5 -6.9 83 -9 -9 очень
холодно
1007.5 984.6
СЗ 2
{5}
50 км ясно -4.3 -6.9 82 -8 -8 очень
холодно
1008.1 985.2
СЗ 2
{4}
45 км ясно -4.5 -6.9 83 -9 -9 очень
холодно
1008.7 985.8
СЗ 2
{4}
50 км ясно -4.3 -6.6 84 -8 -8 очень
холодно
1008.8 985.9
СЗ 1
{3}
35 км ясно -5.2 -7.0 87 -8 -8 очень
холодно
1009.2 986.2
СЗ 3
{5}
45 км ясно -4.5 -6.8 84 -10 -10 очень
холодно
1009.5 986.5
С 2
{3}
45 км ясно -5.0 -6.9 86 -9 -9 очень
холодно
1009.2 986.3
СЗ 2
{4}
45 км ясно -5.5 -7.2 88 -10 -10 очень
холодно
1009.0 986.1
С 2
{5}
50 км ясно -5.8 -7.4 88 -10 -10 очень
холодно
1008.4 985.5
В 1
{6}
45 км 10/10
[]
-7.7 -9.3 88 -10 -10 очень
холодно
1008.1 985.0
ЮВ 1
{3}
40 км 10/1 2000 м
[]
-9.5 -10.8 90 -12 -12 очень
холодно
1007.4 984.2 -9.5 -3.8
ЮВ 1
{2}
45 км 10/8 1500 м
[]
-9.1 -10.1 92 -11 -11 очень
холодно
1006.9 983.8
штиль 0
{2}
10 км 10/10 1500 м
[]
-7.3 -8.2 93 -8 -8 очень
холодно
1006.0 983.0
штиль 0
{1}
12 км в посл. час снег {метель} 10/10 1380 м
[]
-6.8 -7.6 94 -8 -8 очень
холодно
1005.0 982.1 0.0
ЮВ 2
{3}
50 км {снег, метель} 10/5 1500 м
[]
-5.1 -5.6 96 -10 -10 очень
холодно
1003.5 980.7
Ю 3
{5}
7000 м слаб. ливневой снег 10/6 400 м
[]
-2.2 -3.4 91 -7 -7 холодно 1002.3 979.6
Ю 3
{6}
12 км в посл. час снег {ливн. осадки} 10/6 360 м
[]
-1.5 -2.7 92 -7 -7 холодно 1000.9 978.3
Ю 3
{6}
12 км осадки 10/9 360 м
[]
-1.4 -2.3 94 -7 -7 холодно 999.9 977.3 0.0
В 2
{5}
15 км осадки 10/5 360 м
[]
-1.5 -2.2 95 -6 -6 холодно 999.0 976.4 0.0
Ю 3
{5}
24 км осадки 10/5 420 м
[]
-0.8 -1.6 94 -6 -6 холодно 997.6 975.1 0.0
В 1
{5}
50 км в посл. час осадки {метель} 10/10 270 м
[]
-0.6 -1.3 95 -3 -3 прохладно 997.3 974.8 0.0
В 1
{3}
50 км {осадки, метель} 10/10 270 м
[]
-0.5 -1.0 96 -3 -3 прохладно 996.7 974.3
З 1
{3}
50 км {осадки, метель} 10/4 360 м
[]
+0.9 +0.4 96 -1 -1 по сезону 996.4 974.0 -9.7 +0.9
З 4
{8}
50 км 10/3 300 м
[]
+1.8 +0.7 92 -3 -3 прохладно 996.3 973.9
СЗ 2
{6}
50 км 9/8 270 м
[]
+1.9 +1.1 94 -2 -2 по сезону 996.2 973.9
З 5
{8}
50 км 4/0
[]
+2.6 +1.5 92 -3 -3 прохладно 996.3 974.0
СЗ 3
{7}
50 км 10/6 240 м
[]
+3.1 +2.1 93 -1 -1 по сезону 996.2 974.0
З 3
{10}
50 км 10/10
[]
+3.4 +2.1 91 -1 -1 по сезону 996.4 974.2
СЗ 3
{7}
50 км 10/10
[]
+4.4 +2.7 89 +1 +1 по сезону 995.9 973.7
З 5
{12}
50 км 10/3 1500 м
[]
+5.3 +3.0 85 +1 +1 по сезону 996.5 974.4
СЗ 4
{10}
50 км 10/10 500 м
[]
+5.5 +3.3 86 +1 +1 по сезону 996.3 974.3
СЗ 4
{11}
50 км 10/1 750 м
[]
+5.7 +2.8 82 +2 +2 по сезону 996.3 974.3
СЗ 4
{11}
50 км 5/1
[]
+5.5 +2.4 80 +2 +2 по сезону 996.7 974.7
СЗ 4
{10}
50 км 10/3
[]
+5.4 +2.4 81 +1 +1 по сезону 997.3 975.2
СЗ 4
{9}
50 км ясно +5.5 +2.1 79 +2 +2 по сезону 997.3 975.2 +5.7
СЗ 4
{9}
50 км 4/4
[]
+5.8 +2.2 78 +2 +2 по сезону 997.2 975.2
З 3
{8}
50 км ясно +5.2 +1.8 79 +2 +2 по сезону 998.5 976.4
З 2
{6}
50 км 9/6 1000 м
[]
+4.9 +2.1 82 +2 +2 по сезону 999.7 977.5
З 3
{6}
50 км 10/4 1000 м
[]
+5.3 +2.1 80 +2 +2 по сезону 999.6 977.4
З 1
{5}
50 км 3/0
[]
+4.6 +1.6 81 +3 +3 по сезону 999.7 977.5
З 1
{3}
45 км 10/6
[]
+2.2 -0.1 85 +1 +1 по сезону 1000.1 977.7
Ю 1
{2}
40 км 4/1
[]
+2.0 +1.5 96 0 0 по сезону 1000.1 977.7
штиль 0
{4}
28 км 5/1
[]
+1.1 0.0 92 -0 -0 по сезону 999.6 977.2
В 1
{4}
24 км 10/6
[]
+1.4 +0.3 92 -1 -1 по сезону 999.0 976.6
штиль 0
{2}
24 км 10/10
[]
+1.6 +0.8 94 0 0 по сезону 998.3 975.8 +0.7 +5.9
ЮВ 1
{3}
30 км 10/8
[]
+2.4 +0.9 90 +1 +1 по сезону 996.5 974.2
СВ 1
{2}
28 км 10/4 2000 м
[]
+1.9 +0.7 92 0 0 по сезону 994.8 972.5
В 1
{2}
27 км 10/5 2000 м
[]
+1.6 +1.2 97 -0 -0 по сезону 993.0 970.7
ЮВ 1
{3}
30 км ясно -0.5 -1.3 94 -3 -3 прохладно 992.1 969.8
СЗ 1
{2}
11 км {дымка} ясно -1.8 -2.1 98 -4 -4 прохладно 991.5 969.1
штиль 0
{2}
12 км в посл. час туман ясно -2.3 -2.5 99 -4 -4 прохладно 991.1 968.7
З 4
{7}
50 км {дымка} 10/1 2000 м
[]
+3.0 +0.3 82 -2 -2 по сезону 990.7 968.6
З 2
{7}
50 км {дымка} 10/8 2000 м
[]
+3.4 -0.2 77 +1 +1 по сезону 991.1 968.9
З 2
{7}
50 км {дымка} ясно +2.8 -0.8 77 -0 -0 по сезону 990.7 968.6
ЮЗ 1
{6}
50 км {дымка} 1/0
[]
-0.1 -2.3 85 -2 -2 по сезону 990.8 968.5
ЮЗ 1
{2}
50 км {дымка} ясно -3.1 -3.5 97 -6 -6 холодно 990.8 968.4
В 1
{3}
50 км ясно -3.0 -3.3 98 -5 -5 холодно 990.2 967.8 -3.7 +3.7
СВ 1
{3}
50 км ясно -1.0 -2.6 89 -3 -3 прохладно 989.3 967.0
ЮВ 3
{4}
50 км ясно -0.9 -2.5 89 -6 -6 холодно 989.0 966.7
В 2
{5}
50 км ясно -0.4 -1.6 92 -4 -4 прохладно 988.1 965.8
В 2
{3}
50 км 4/4
[]
-0.6 -2.3 88 -4 -4 прохладно 986.7 964.5
В 1
{4}
50 км 3/3
[]
-0.2 -1.7 90 -2 -2 по сезону 985.3 963.1
ЮВ 1
{4}
50 км ясно -0.8 -2.3 90 -3 -3 прохладно 984.6 962.3
штиль 0
{4}
50 км ясно -0.5 -2.3 88 -2 -2 по сезону 983.3 961.2
В 1
{4}
50 км ясно -1.4 -3.6 85 -4 -4 прохладно 983.1 960.9
ЮЗ 3
{6}
50 км 5/5
[]
+2.1 -2.1 74 -2 -2 по сезону 981.9 959.9
ЮЗ 6
{12}
50 км 10/10
[]
+3.1 -2.1 69 -2 -2 по сезону 981.1 959.2
ЮЗ 5
{12}
50 км 8/6
[]
+2.8 -1.5 73 -2 -2 по сезону 981.2 959.2
ЮЗ 3
{8}
50 км ясно +1.4 -1.5 81 -3 -3 прохладно 981.9 959.8 -3.3 +3.1
ЮЗ 4
{7}
50 км ясно +1.4 -2.4 76 -4 -4 прохладно 982.0 960.0
ЮЗ 3
{7}
50 км ясно +0.6 -2.5 80 -4 -4 прохладно 982.5 960.4
З 4
{8}
50 км ясно +0.8 -3.4 73 -4 -4 прохладно 982.5 960.5
З 3
{7}
50 км ясно +0.5 -4.2 71 -4 -4 прохладно 982.7 960.6
З 2
{6}
50 км ясно -0.1 -3.8 76 -4 -4 прохладно 982.7 960.5
СЗ 1
{7}
50 км ясно -1.6 -4.2 82 -4 -4 прохладно 982.5 960.3
В 1
{6}
50 км ясно -3.3 -4.9 89 -6 -6 холодно 982.5 960.3
З 1
{3}
50 км ясно -1.5 -2.3 94 -4 -4 прохладно 981.6 959.4
штиль 0
{2}
50 км ясно -5.3 -6.0 95 -6 -6 холодно 981.2 958.9
штиль 0
{2}
40 км ясно -6.1 -6.9 94 -7 -7 холодно 981.2 958.8
штиль 0
{2}
50 км 1/1
[]
-6.3 -7.0 95 -7 -7 холодно 981.1 958.7
З 1
{2}
50 км 10/10
[]
-5.0 -5.4 97 -8 -8 очень
холодно
981.0 958.7 -7.3 +1.6
штиль 0
{1}
50 км 10/10
[]
-5.0 -5.7 95 -6 -6 холодно 981.0 958.7
штиль 0
{2}
50 км 10/5
[]
-4.7 -5.3 96 -6 -6 холодно 981.0 958.7
штиль 0
{2}
50 км 10/1 1500 м
[]
-4.3 -4.9 96 -6 -6 холодно 981.5 959.2
штиль 0
{2}
23 км слаб. снег 10/10 1500 м
[]
-3.7 -4.4 95 -5 -5 холодно 981.7 959.4 0.1
ЮВ 1 1900 м слаб. ливневой снег ?/? -3.1 -3.6 96 -6 -6 холодно 981.9 959.6 0.3
ЮЗ 1
{4}
40 км в посл. час снег {ливн. осадки} 10/1 210 м
[]
-3.3 -3.7 97 -6 -6 холодно 981.9 959.6 0.4
штиль 0
{2}
45 км 10/6 150 м
[]
-4.1 -4.4 98 -5 -5 холодно 982.1 959.8
ЮВ 1
{2}
50 км 10/9 150 м
[]
-4.9 -5.3 97 -7 -7 холодно 982.7 960.3
ЮВ 2
{3}
50 км ясно -6.5 -7.2 95 -11 -11 очень
холодно
983.0 960.6
штиль 0
{2}
50 км ясно -5.7 -6.2 96 -7 -7 холодно 983.2 960.8
штиль 0
{2}
50 км 10/10
[]
-5.2 -5.8 96 -6 -6 холодно 983.6 961.2
штиль 0
{2}
50 км 10/10 2000 м
[]
-4.4 -4.9 96 -6 -6 холодно 983.7 961.4 -6.9 -1.9
СВ 1
{2}
50 км 10/6
[]
-5.0 -5.6 96 -8 -8 очень
холодно
984.0 961.6
ЮВ 1
{2}
50 км 10/10
[]
-5.2 -5.7 96 -8 -8 очень
холодно
984.6 962.2
штиль 0
{2}
50 км ясно -5.1 -5.6 96 -6 -6 холодно 984.8 962.5
СВ 2
{2}
30 км ясно -3.6 -4.2 96 -8 -8 очень
холодно
984.7 962.4
штиль 0
{3}
50 км 10/8
[]
-5.2 -5.9 95 -6 -6 холодно 984.8 962.4
В 1
{2}
50 км 1/0
[]
-5.4 -5.9 96 -8 -8 очень
холодно
984.8 962.3
С 1
{2}
50 км ясно -5.5 -6.5 93 -8 -8 очень
холодно
984.9 962.4
штиль 0
{1}
50 км 4/1
[]
-7.0 -7.6 95 -8 -8 очень
холодно
985.0 962.5
С 1
{3}
50 км 3/0
[]
-6.7 -7.4 95 -9 -9 очень
холодно
984.7 962.2
ЮЗ 1
{2}
50 км ясно -7.1 -8.1 93 -10 -10 очень
холодно
984.6 962.0
СЗ 1
{2}
50 км ясно -7.2 -8.0 94 -10 -10 очень
холодно
984.4 961.9
штиль 0
{2}
50 км ясно -8.2 -9.4 91 -9 -9 очень
холодно
984.5 961.9 -8.2 -3.3
штиль 0
{1}
50 км 1/1
[]
-7.5 -8.4 93 -8 -8 очень
холодно
984.6 962.1
штиль 0
{2}
50 км 10/1
[]
-6.7 -7.7 93 -8 -8 очень
холодно
984.5 962.1
штиль 0
{1}
50 км 10/10
[]
-6.6 -7.5 93 -8 -8 очень
холодно
984.2 961.7
З 1
{4}
50 км 10/9
[]
-4.2 -5.8 89 -7 -7 холодно 983.6 961.3
С 1
{2}
50 км 10/9
[]
-5.3 -6.0 95 -8 -8 очень
холодно
983.4 961.0
Местоположение метеостанции Хемлинг (Швеция): широта 63.65 долгота 18.55 высота над уровнем моря 183 м.
В архиве по умолчанию представлена погода в Хемлинге за последнюю неделю. Архивные данные за месяц целиком и за предыдущие месяцы, начиная с января 2011 года, Вы можете получить, выбрав интересующий диапазон дат из раскрывающегося списка и нажав кнопку "Найти!".
*Определитесь, кто Вы:
Внимание! Время в таблицах - всемирное. Для получения местного времени необходимо прибавить поправку, которая равна 1 ч.
Смотрите также архив погоды в соседних городах и на ближайших метеорологических станциях:
Партнеры нашего сайта:      
Пояснения к столбцам:
  • Ветер - указаны скорость ветра в м/с - средняя за 10 мин, порывы в срок и между сроками (в фигурных скобках) и направление, откуда дует ветер: С - северный,
  • СВ - северо-восточный, В - восточный, ЮВ - юго-восточный, Ю - южный, ЮЗ - юго-западный, З - западный, СЗ - северо-западный.
  • Видимость - горизонтальная дальность видимости в метрах или километрах. При видимости от 1 до 10 км при отсутствии осадков обычно наблюдается дымка, при ухудшении видимости до 1 км и менее - туман. В сухую погоду видимость может ухудшаться дымом, пылью или мглою.
  • Явления - указаны атмосферные явления, наблюдавшиеся в срок или в последний час перед сроком; фигурными скобками обозначены явления, наблюдавшиеся между сроками (за 1-3 часа до срока); квадратными скобками обозначены град или гололедные отложения с указанием их диаметра в мм.
  • Облачность - указаны через наклонную черту общая и нижняя облачность в баллах и высота нижней границы облаков в метрах; квадратными скобками обозначены формы облаков: Ci - перистые, Cs - перисто-слоистые, Cc - перисто-кучевые, Ac - высококучевые, As - высокослоистые, Sc - слоисто-кучевые, Ns - слоисто-дождевые, Cu - кучевые, Cb - кучево-дождевые. Подробнее классификацию облаков см. в Атласе облаков (PDF).
  • T - Температура воздуха - температура, измеренная на высоте 2 м над землей.
  • Td - Температура точки росы - температура, при понижении до которой содержащийся в воздухе водяной пар достигнет насыщения.
  • f - Относительная влажность воздуха - влажноcть воздуха, измеренная на высоте 2 м над землей.
  • Te - Эффективная температура - температура, которую ощущает одетый по сезону человек в тени. Характеристика душности погоды. При расчете учитывается влияние влажности воздуха и скорости ветра на теплоощущения человека.
  • Tes - Эффективная температура на солнце - температура, которую ощущает человек, с поправкой на солнечный нагрев. Характеристика знойности погоды. Зависит от высоты солнца над горизонтом, облачности и скорости ветра. Ночью, в пасмурную погоду, а также при ветре 12 м/с и более поправка равна нулю.
  • P - Атмосферное давление - приведенное к уровню моря атмосферное давление.
  • Po - Атмосферное давление - измеренное на уровне метеостанции атмосферное давление.
  • Tmin - Минимальная температура - минимум температуры воздуха на высоте 2 м над землей.
  • Tmax - Максимальная температура - максимум температуры воздуха на высоте 2 м над землей.
  • R - Количество осадков - Количество выпавших осадков за период времени, мм. При наведении курсора мыши на число - период времени, за который выпало указанное количество осадков.
  • R24 - Количество осадков - Количество выпавших осадков за 24 часа, мм.
  • S - Снежный покров - Высота снежного покрова, см. При наведении курсора мыши на число - состояние снежного покрова и степень покрытия местности в баллах.